Regional Weather Roundup
Issued by NWS Mt. Holly, NJ

Home | Current Version | Previous Version | Text Only | Print | Product List | Glossary On
Versions: 1 2 3 4 5 6 7 8 9 10 11 12 13 14 15 16 17 18 19 20 21 22 23 24 25 26 27 28
000
ASUS41 KPHI 100011
RWRPHI

REGIONAL WEATHER ROUNDUP
NATIONAL WEATHER SERVICE MOUNT HOLLY NJ
700 PM EST FRI DEC 09 2016

NOTE:  "FAIR" INDICATES FEW OR NO CLOUDS BELOW 12,000 FEET WITH NO
SIGNIFICANT WEATHER AND/OR OBSTRUCTIONS TO VISIBILITY.

 * = STATION DOES NOT REPORT PRECIPITATION (E.G. RAIN, SNOW, ETC.)
        OR FOG.

NJZ015>026-100100-
SOUTHERN NEW JERSEY

CITY           SKY/WX    TMP DP  RH WIND       PRES   REMARKS
POMONA         CLEAR     33  16  49 W14G21    30.30R WCI  23
6HR MIN TEMP:  33; 6HR MAX TEMP:  39;

WILDWOOD*      MOCLDY    36  19  50 NW15G23   30.33R WCI  27
MILLVILLE      PTCLDY    32  19  58 W9        30.33R WCI  24
WRIGHTSTOWN    MOCLDY    33  20  58 NW10      30.26R WCI  25
MOUNT HOLLY    PTCLDY    34  17  50 W8        30.30R WCI  27
TRENTON        CLEAR     33  20  58 NW8       30.27R WCI  26
6HR MIN TEMP:  32; 6HR MAX TEMP:  38;


$$
NJZ001>014-100100-
NORTHERN NEW JERSEY

CITY           SKY/WX    TMP DP  RH WIND       PRES   REMARKS
SUSSEX         CLEAR     27  12  53 N3        30.25R
ANDOVER*         N/A     29  13  51 VRB6      30.25R WCI  23
MORRISTOWN     PTCLDY    32  14  47 N16G28    30.26R WCI  21
NEWARK         PTCLDY    34  12  40 NW20G31   30.26R WCI  23
TETERBORO      CLEAR     33  13  43 NW9G18    30.25R WCI  25
CALDWELL       CLEAR     32  11  41 NW14G25   30.26R WCI  22
SOMERVILLE     CLEAR     33  13  43 NW12G20   30.26R WCI  24
ALLAIRE*       PTCLDY    32  20  61 W12       30.26R WCI  23
TOMS RIVER*    PTCLDY    32  22  66 W8        30.29R WCI  25

$$
PAZ043-044-047-054-055-060>062-066>071-100100-
EASTERN PENNSYLVANIA

CITY           SKY/WX    TMP DP  RH WIND       PRES   REMARKS
PHILADELPHIA   MOCLDY    35  17  47 W15       30.32R WCI  25
6HR MIN TEMP:  35; 6HR MAX TEMP:  38;

NORTH PHILA    PTCLDY    34  19  54 W9        30.31R WCI  27
BLUE BELL*     CLEAR     32  19  59 CALM      30.28R
DOYLESTOWN     CLEAR     32  21  64 W7        30.27R WCI  26
QUAKERTOWN*    CLEAR     30  19  64 W5        30.28R WCI  25
PERKASIE*      FAIR      30  19  64 W7        30.27R WCI  23
POTTSTOWN      PTCLDY    29  19  66 W6        30.30R WCI  23
LANCASTER      PTCLDY    29  19  66 W12       30.32R WCI  19
COATESVILLE    PTCLDY    30  18  59 W12       30.30R WCI  21
READING        FLURRIES  32  21  64 W15       30.30R WCI  22
6HR MIN TEMP:  32; 6HR MAX TEMP:  37; 6HR PCP: TRACE;

ALLENTOWN      PTCLDY    31  21  66 W10       30.27R WCI  22
6HR MIN TEMP:  30; 6HR MAX TEMP:  37;

MOUNT POCONO   CLEAR     21  12  68 NW12G23   30.15R WCI   9
6HR MIN TEMP:  21; 6HR MAX TEMP:  29; 6HR PCP: TRACE;

HAZLETON       CLOUDY    28  21  74 W6        30.24R WCI  22
LEHIGHTON        N/A     30  23  74 SW6       30.28R WCI  24
WILKES BARRE   CLEAR     26  16  65 NW5       30.24R WCI  20

$$
DEZALL-MDZ008-012-015-019-020-100100-
DELAWARE AND EASTERN MARYLAND

CITY           SKY/WX    TMP DP  RH WIND       PRES   REMARKS
WILMINGTON     CLEAR     32  17  54 W13       30.33R WCI  22
6HR MIN TEMP:  32; 6HR MAX TEMP:  38;

DOVER          CLEAR     34  18  52 W14       30.34R WCI  24
GEORGETOWN     CLEAR     35  17  47 VRB5      30.36R WCI  31
6HR MIN TEMP:  35; 6HR MAX TEMP:  41;

EASTON         CLEAR     36  18  48 NW10G17   30.41R WCI  28
ABERDEEN       CLEAR     32  15  50 W9        30.37R WCI  24
PATUXENT       CLEAR     34  17  50 NW16G23   30.40R WCI  24
OCEAN CITY     CLEAR     33  18  53 W5        30.36R WCI  29
WALLOPS ISLAND CLEAR     34  20  56 NW8       30.38R WCI  27
CAMBRIDGE      CLEAR     34  18  51 NW13G20   30.38R WCI  25
SALISBURY      CLEAR     34  18  52 W8        30.37R WCI  27

$$
PAZ001-021-NYZ056-072-MDZ011-DCZ001-100100-
OTHER NEARBY LOCATIONS

CITY           SKY/WX    TMP DP  RH WIND       PRES   REMARKS
HARRISBURG     PTCLDY    32  21  64 W13       30.33R WCI  22
STATE COLLEGE  CLOUDY    27  19  74 SW13G23   30.30R WCI  16
WILLIAMSPORT   CLOUDY    30  23  75 W8        30.29R WCI  22
BINGHAMTON     CLOUDY    20  13  74 W8        30.17S WCI  10
NEW YORK CITY  CLEAR     33  11  39 W10G25    30.26R WCI  25
BALTIMORE      PTCLDY    31  16  54 W13       30.38R WCI  21
WASHINGTON DC  PTCLDY    34  16  47 W16       30.44R WCI  24

$$




USA.gov is the U.S. government's official web portal to all federal, state and local government web resources and services.